timestamp,surface_pressure_avg,surface_temp_avg,battery_voltage,lat,long
2021-05-24 00:09:01+00:00,296.853,7.9,12.49,47.84626,-54.09684
2021-05-24 00:19:01+00:00,286.6797,7.9,12.49,47.84626,-54.09684
2021-05-24 00:29:01+00:00,280.5515,7.9,12.49,47.84626,-54.09684
2021-05-24 00:39:01+00:00,273.5564,7.9,12.49,47.84626,-54.09684
2021-05-24 00:49:01+00:00,262.4581,7.9,12.49,47.84626,-54.09684
2021-05-24 00:59:01+00:00,249.7664,7.9,12.49,47.84626,-54.09684
2021-05-24 01:09:01+00:00,240.4798,7.9,12.49,47.84626,-54.09684
2021-05-24 01:19:01+00:00,233.8614,7.9,12.49,47.84626,-54.09684
2021-05-24 01:29:01+00:00,232.5014,7.9,12.49,47.84626,-54.09684
2021-05-24 01:39:01+00:00,231.9531,7.9,12.49,47.84626,-54.09684
2021-05-24 01:49:01+00:00,228.5748,7.89,12.49,47.84626,-54.09684
2021-05-24 01:59:01+00:00,224.2698,7.91,12.49,47.84626,-54.09684
2021-05-24 02:09:01+00:00,217.4131,7.98,12.49,47.84626,-54.09684
2021-05-24 02:19:01+00:00,210.7997,7.97,12.49,47.84626,-54.09684
2021-05-24 02:29:01+00:00,206.4398,7.97,12.49,47.84626,-54.09684
2021-05-24 02:39:01+00:00,205.6147,8.18,12.49,47.84626,-54.09684
2021-05-24 02:49:01+00:00,204.4865,8.2,12.49,47.84626,-54.09684
2021-05-24 02:59:01+00:00,204.2215,8.22,12.49,47.84626,-54.09684
2021-05-24 03:09:01+00:00,201.2448,8.24,12.49,47.84626,-54.09684
2021-05-24 03:19:00+00:00,197.4565,8.2,12.49,47.84626,-54.09684
2021-05-24 03:29:00+00:00,194.0131,8.2,12.49,47.84626,-54.09684
2021-05-24 03:39:00+00:00,192.8448,8.2,12.49,47.84626,-54.09684
2021-05-24 03:49:00+00:00,187.1398,8.2,12.49,47.84626,-54.09684
2021-05-24 03:59:00+00:00,188.0264,8.19,12.49,47.84626,-54.09684
2021-05-24 04:09:00+00:00,189.8515,8.13,12.49,47.84626,-54.09684
2021-05-24 04:19:00+00:00,189.0231,8.1,12.49,47.84626,-54.09684
2021-05-24 04:29:00+00:00,189.2081,8.1,12.49,47.84626,-54.09684
2021-05-24 04:39:00+00:00,195.7014,8.09,12.49,47.84626,-54.09684
2021-05-24 04:49:00+00:00,194.1131,8.0,12.49,47.84626,-54.09684
2021-05-24 04:59:00+00:00,193.8098,8.0,12.49,47.84626,-54.09684
2021-05-24 05:09:00+00:00,200.0965,7.93,12.49,47.84626,-54.09684
2021-05-24 05:19:00+00:00,201.5915,7.9,12.49,47.84626,-54.09684
2021-05-24 05:29:00+00:00,202.3065,7.89,12.49,47.84626,-54.09684
2021-05-24 05:39:00+00:00,213.5365,7.88,12.49,47.84626,-54.09684
2021-05-24 05:49:00+00:00,219.3748,7.87,12.49,47.84626,-54.09684
2021-05-24 05:59:00+00:00,221.4381,7.8,12.49,47.84626,-54.09684
2021-05-24 06:09:00+00:00,232.2181,7.8,12.49,47.84626,-54.09684
2021-05-24 06:19:00+00:00,233.9898,7.8,12.49,47.84626,-54.09684
2021-05-24 06:29:00+00:00,237.0881,7.79,12.49,47.84626,-54.09684
2021-05-24 06:39:00+00:00,253.4181,7.78,12.49,47.84626,-54.09684
2021-05-24 06:49:00+00:00,261.8714,7.8,12.49,47.84626,-54.09684
2021-05-24 06:59:00+00:00,264.3864,7.7,12.49,47.84626,-54.09684
2021-05-24 07:09:00+00:00,270.878,7.7,12.49,47.84626,-54.09684
2021-05-24 07:19:00+00:00,287.2847,7.9,12.49,47.84626,-54.09684
2021-05-24 07:29:00+00:00,290.0981,7.7,12.49,47.84626,-54.09684
2021-05-24 07:39:00+00:00,293.7513,7.75,12.49,47.84626,-54.09684
2021-05-24 07:49:00+00:00,306.368,7.91,12.49,47.84626,-54.09684
2021-05-24 07:59:00+00:00,318.118,7.99,12.49,47.84626,-54.09684
2021-05-24 08:09:00+00:00,319.7146,7.8,12.49,47.84626,-54.09684
2021-05-24 08:19:00+00:00,326.0897,7.87,12.49,47.84626,-54.09684
2021-05-24 08:29:00+00:00,340.4713,7.8,12.49,47.84626,-54.09684
2021-05-24 08:39:00+00:00,341.9046,7.69,12.49,47.84626,-54.09684
2021-05-24 08:49:00+00:00,338.0197,7.63,12.49,47.84626,-54.09684
2021-05-24 08:59:00+00:00,347.5813,7.7,12.49,47.84626,-54.09684
2021-05-24 09:09:00+00:00,355.4146,7.7,12.49,47.84626,-54.09684
2021-05-24 09:19:00+00:00,352.088,7.76,12.57,47.84626,-54.09684
2021-05-24 09:29:00+00:00,349.2263,7.71,12.57,47.84626,-54.09684
2021-05-24 09:39:00+00:00,356.4146,7.79,12.57,47.84626,-54.09684
2021-05-24 09:49:00+00:00,358.5429,7.78,12.57,47.84626,-54.09684
2021-05-24 09:59:00+00:00,348.5146,7.7,12.57,47.84626,-54.09684
2021-05-24 10:09:00+00:00,348.5128,7.7,12.57,47.84626,-54.09684
2021-05-24 10:19:01+00:00,356.2679,7.75,13.05,47.84626,-54.09684
2021-05-24 10:29:01+00:00,350.903,7.7,13.05,47.84626,-54.09684
2021-05-24 10:39:01+00:00,342.8863,7.7,13.05,47.84626,-54.09684
2021-05-24 10:49:01+00:00,345.68300000000005,7.7,13.05,47.84626,-54.09684
2021-05-24 10:59:01+00:00,346.168,7.69,13.05,47.84626,-54.09684
2021-05-24 11:09:01+00:00,339.0747,7.62,13.05,47.84626,-54.09684
2021-05-24 11:19:00+00:00,331.778,7.64,13.29,47.84626,-54.09684
2021-05-24 11:29:00+00:00,331.543,7.61,13.29,47.84626,-54.09684
2021-05-24 11:39:00+00:00,325.0797,7.5,13.29,47.84626,-54.09684
2021-05-24 11:49:00+00:00,318.9997,7.4,13.29,47.84626,-54.09684
2021-05-24 11:59:00+00:00,316.3979,7.32,13.29,47.84626,-54.09684
2021-05-24 12:09:00+00:00,310.3597,7.3,13.29,47.84626,-54.09684
2021-05-24 12:19:01+00:00,301.3597,7.35,14.0,47.84626,-54.09684
2021-05-24 12:29:01+00:00,294.83299999999997,7.3,14.0,47.84626,-54.09684
2021-05-24 12:39:01+00:00,289.6531,7.3,14.0,47.84626,-54.09684
2021-05-24 12:49:01+00:00,281.8113,7.26,14.0,47.84626,-54.09684
2021-05-24 12:59:01+00:00,268.6797,7.5,14.0,47.84626,-54.09684
2021-05-24 13:09:01+00:00,257.4431,7.5,14.0,47.84626,-54.09684
2021-05-24 13:19:00+00:00,248.8914,7.47,14.24,47.84626,-54.09684
2021-05-24 13:29:00+00:00,241.0564,7.51,14.24,47.84626,-54.09684
2021-05-24 13:39:00+00:00,234.1081,7.5,14.24,47.84626,-54.09684
2021-05-24 13:49:00+00:00,227.3814,7.5,14.24,47.84626,-54.09684
2021-05-24 13:59:00+00:00,221.0865,7.5,14.24,47.84626,-54.09684
2021-05-24 14:09:00+00:00,217.7264,7.5,14.24,47.84626,-54.09684
2021-05-24 14:19:00+00:00,214.3347,7.5,14.24,47.84626,-54.09684
2021-05-24 14:29:00+00:00,207.9731,7.49,14.24,47.84626,-54.09684
2021-05-24 14:39:00+00:00,205.8164,7.48,14.24,47.84626,-54.09684
2021-05-24 14:49:00+00:00,206.0048,7.43,14.24,47.84626,-54.09684
2021-05-24 14:59:00+00:00,200.7898,7.4,14.24,47.84626,-54.09684
2021-05-24 15:09:00+00:00,197.4031,7.44,14.24,47.84626,-54.09684
2021-05-24 15:19:01+00:00,198.8098,7.4,14.24,47.84626,-54.09684
2021-05-24 15:29:01+00:00,196.2415,7.4,14.24,47.84626,-54.09684
2021-05-24 15:39:01+00:00,193.5865,7.4,14.24,47.84626,-54.09684
2021-05-24 15:49:01+00:00,193.5098,7.4,14.24,47.84626,-54.09684
2021-05-24 15:59:01+00:00,192.8548,7.39,14.24,47.84626,-54.09684
2021-05-24 16:09:01+00:00,195.2215,7.4,14.24,47.84626,-54.09684
2021-05-24 16:19:01+00:00,198.0265,7.4,14.24,47.84626,-54.09684
2021-05-24 16:29:01+00:00,194.3048,7.39,14.24,47.84626,-54.09684
2021-05-24 16:39:01+00:00,195.4715,7.39,14.24,47.84626,-54.09684
2021-05-24 16:49:01+00:00,203.6764,7.36,14.24,47.84626,-54.09684
2021-05-24 16:59:01+00:00,204.7998,7.31,14.24,47.84626,-54.09684
2021-05-24 17:09:01+00:00,202.0398,7.3,14.24,47.84626,-54.09684
2021-05-24 17:19:01+00:00,206.3864,7.3,14.32,47.84626,-54.09684
2021-05-24 17:29:01+00:00,214.5781,7.3,14.32,47.84626,-54.09684
2021-05-24 17:39:01+00:00,219.0064,7.3,14.32,47.84626,-54.09684
2021-05-24 17:49:01+00:00,227.3548,7.3,14.32,47.84626,-54.09684
2021-05-24 17:59:01+00:00,237.4214,7.2,14.32,47.84626,-54.09684
2021-05-24 18:09:01+00:00,241.5381,7.3,14.32,47.84626,-54.09684
2021-05-24 18:19:00+00:00,243.7797,7.34,14.32,47.84626,-54.09684
2021-05-24 18:29:00+00:00,254.7481,7.3,14.32,47.84626,-54.09684
2021-05-24 18:39:00+00:00,265.9648,7.3,14.32,47.84626,-54.09684
2021-05-24 18:49:00+00:00,269.8831,7.3,14.32,47.84626,-54.09684
2021-05-24 18:59:00+00:00,271.2348,7.3,14.32,47.84626,-54.09684
2021-05-24 19:09:00+00:00,286.848,7.1,14.32,47.84626,-54.09684
2021-05-24 19:19:00+00:00,298.5114,7.12,14.16,47.84626,-54.09684
2021-05-24 19:29:00+00:00,298.313,7.2,14.16,47.84626,-54.09684
2021-05-24 19:39:00+00:00,303.968,7.2,14.16,47.84626,-54.09684
2021-05-24 19:49:00+00:00,323.493,7.2,14.16,47.84626,-54.09684
2021-05-24 19:59:00+00:00,329.0646,7.2,14.16,47.84626,-54.09684
2021-05-24 20:09:00+00:00,325.1163,7.2,14.16,47.84626,-54.09684
2021-05-24 20:19:01+00:00,339.3147,7.15,14.08,47.84626,-54.09684
2021-05-24 20:29:01+00:00,356.2396,7.1,14.08,47.84626,-54.09684
2021-05-24 20:39:01+00:00,353.533,7.1,14.08,47.84626,-54.09684
2021-05-24 20:49:01+00:00,351.1996,7.1,14.08,47.84626,-54.09684
2021-05-24 20:59:01+00:00,363.8196,7.08,14.08,47.84626,-54.09684
2021-05-24 21:09:01+00:00,377.0895,7.08,14.08,47.84626,-54.09684
2021-05-24 21:19:01+00:00,371.0864,7.07,14.0,47.84626,-54.09684
2021-05-24 21:29:01+00:00,365.8113,7.05,14.0,47.84626,-54.09684
2021-05-24 21:39:01+00:00,375.8812,7.04,14.0,47.84626,-54.09684
2021-05-24 21:49:01+00:00,383.7811,7.03,14.0,47.84626,-54.09684
2021-05-24 21:59:01+00:00,376.1896,7.0,14.0,47.84626,-54.09684
2021-05-24 22:09:01+00:00,372.3846,7.0,14.0,47.84626,-54.09684
2021-05-24 22:19:01+00:00,382.3596,6.9,13.76,47.84626,-54.09684
2021-05-24 22:29:01+00:00,381.8145,6.9,13.76,47.84626,-54.09684
2021-05-24 22:39:01+00:00,373.1746,6.8,13.76,47.84626,-54.09684
2021-05-24 22:49:01+00:00,374.3395,6.8,13.76,47.84626,-54.09684
2021-05-24 22:59:01+00:00,378.3631,6.7,13.76,47.84626,-54.09684
2021-05-24 23:09:01+00:00,372.3879,6.7,13.76,47.84626,-54.09684
2021-05-24 23:19:01+00:00,363.8829,6.7,13.37,47.84626,-54.09684
2021-05-24 23:29:01+00:00,359.4663,6.6,13.37,47.84626,-54.09684
2021-05-24 23:39:01+00:00,356.7163,6.6,13.37,47.84626,-54.09684
2021-05-24 23:49:01+00:00,348.6446,6.6,13.37,47.84626,-54.09684
2021-05-24 23:59:01+00:00,343.5179,6.59,13.37,47.84626,-54.09684
